Location: Finnegan
(51.1333°N, 112.0833°W)
Time: 10:41:08
(UTC+00:00)

ACS3 Solar Sail - Visible Passes

Search period start: 09 November 2025 00:00
Search period end: 19 November 2025 00:00
Orbit: 917 x 987 km, 97.3° (Epoch: 08 November)

Date Brightness Start Highest point End Pass type
(mag) Time Alt. Az. Time Alt. Az. Time Alt. Az.
09 Nov 4.3 09:16:32 10° NE 09:18:16 14° ENE 09:18:16 14° ENE visible
09 Nov 2.2 10:57:47 10° NNE 11:02:25 54° NNE 11:02:25 54° NNE visible
09 Nov 2.7 12:41:35 10° N 12:46:16 24° WNW 12:46:33 24° WNW visible
10 Nov 4.1 09:33:42 10° NE 09:36:12 18° ENE 09:36:12 18° ENE visible
10 Nov 2.1 11:15:44 10° NNE 11:20:20 55° N 11:20:20 55° N visible
10 Nov 3.0 12:59:54 10° NNW 13:03:55 19° NW 13:04:28 19° WNW visible
11 Nov 3.8 09:51:08 10° NNE 09:54:05 23° ENE 09:54:05 23° ENE visible
11 Nov 2.1 11:33:41 10° N 11:38:13 49° NNW 11:38:13 49° NNW visible
11 Nov 3.3 13:18:22 10° NNW 13:21:29 15° NW 13:22:21 14° WNW visible
12 Nov 3.5 10:08:43 10° NNE 10:11:55 27° NE 10:11:55 27° NE visible
12 Nov 2.3 11:51:38 10° N 11:56:03 40° NNW 11:56:03 40° NNW visible
12 Nov 3.5 13:37:14 10° NNW 13:38:58 11° NW 13:40:11 11° WNW visible
13 Nov 3.2 10:26:20 10° NNE 10:29:44 32° NE 10:29:44 32° NE visible
13 Nov 2.5 12:09:37 10° N 12:13:51 33° NW 12:13:51 33° NW visible
14 Nov 3.0 10:44:01 10° NNE 10:47:29 36° NNE 10:47:29 36° NNE visible
14 Nov 2.8 12:27:37 10° N 12:31:37 27° NW 12:31:37 27° NW visible
15 Nov 4.4 09:20:03 10° NE 09:21:06 13° NE 09:21:06 13° NE visible
15 Nov 2.8 11:01:43 10° NNE 11:05:13 37° NNE 11:05:13 37° NNE visible
15 Nov 3.0 12:45:39 10° N 12:49:20 21° NW 12:49:20 21° NW visible
16 Nov 4.2 09:37:09 10° NE 09:38:47 16° NE 09:38:47 16° NE visible
16 Nov 2.7 11:19:25 10° N 11:22:54 36° N 11:22:54 36° N visible
16 Nov 3.2 13:03:46 10° NNW 13:07:01 17° NW 13:07:01 17° NW visible
17 Nov 4.0 09:54:26 10° NNE 09:56:26 19° NE 09:56:26 19° NE visible
17 Nov 2.7 11:37:09 10° N 11:40:33 34° N 11:40:33 34° N visible
17 Nov 3.4 13:22:05 10° NNW 13:24:40 13° NW 13:24:40 13° NW visible
18 Nov 3.8 10:11:48 10° NNE 10:14:03 22° NE 10:14:03 22° NE visible
18 Nov 2.8 11:54:52 10° N 11:58:09 30° NNW 11:58:09 30° NNW visible
18 Nov 3.6 13:41:24 10° NW 13:41:58 10° NW 13:42:16 10° NW visible
